{"data":{"norad_id":45436,"intl_designator":"2020-020N","name":"ONEWEB-0095","alt_names":[],"object_type":"PAYLOAD","status":"ACTIVE","operator":null,"country":"UK","launch_date":"2020-03-21","launch_site_code":"TYMSC","launch_vehicle":null,"mission":null,"orbit_class":"UNKNOWN","rcs_meters":null,"size_class":null,"mass_kg":null,"dimensions":null,"purposes":["comms"],"wikipedia_slug":null,"has_3d_model":false,"image_url":null,"decayed_at":null,"tle_current":{"epoch":"2026-05-25T01:57:18.808416Z","epoch_age_seconds":62037,"freshness":"FRESH","line1":"1 45436U 20020N   26145.08146769 -.00000487  00000+0 -14112-2 0  9996","line2":"2 45436  87.8918  25.6640 0002033 104.8339 255.3014 13.11418068299647","mean_motion":13.11418068,"eccentricity":0.0002033,"inclination_deg":87.8918,"raan_deg":25.664,"arg_perigee_deg":104.8339,"mean_anomaly_deg":255.3014,"bstar":-0.0014112,"rev_number":29964,"period_min":109.80480101179,"perigee_km":1216.1341327834,"apogee_km":1219.2225913096,"semimajor_km":7595.8153620465,"source":"CELESTRAK","updated_at":"2026-05-25T13:38:22.343348Z"}}}